GW1983 Weather Reports


time (UTC)temp
C
wind
direction
speed
KPH
gust
KPH
rain 1hr
cm
rain 24hr
cm
rain mn
cm
humidity
%
barometer
mb
20260506073045 10 0 0.0 4.8 0.00 0.00 0.00 89 1008.5
20260506071543 10 177 0.0 4.8 0.00 0.00 0.00 88 1008.3
20260506061557 10 180 0.0 6.4 0.00 0.00 0.00 87 1008.2
20260506044540 11 179 1.6 9.7 0.00 0.00 0.00 83 1008.5
20260506043039 11 360 0.0 4.8 0.00 0.00 0.00 83 1008.4
20260506041535 11 360 0.0 4.8 0.00 0.00 0.00 82 1008.5
20260506040036 12 360 0.0 6.4 0.00 0.00 0.00 81 1008.4
20260506034545 11 0 0.0 6.4 0.00 0.00 0.00 83 1008.2
20260506033042 11 0 0.0 3.2 0.00 0.00 0.00 83 1008.1
20260506031542 11 174 0.0 6.4 0.00 0.00 0.00 82 1008.0
20260506030035 12 360 0.0 6.4 0.00 0.00 0.00 81 1008.0
20260506024534 12 360 1.6 4.8 0.00 0.00 0.00 80 1008.1
20260506023052 12 360 0.0 1.6 0.00 0.00 0.00 80 1008.2
20260506021536 12 360 1.6 4.8 0.00 0.00 0.00 79 1008.1
20260506020110 12 360 0.0 3.2 0.00 0.00 0.00 79 1008.2
20260506014544 12 360 0.0 3.2 0.00 0.00 0.00 77 1008.4
20260506013044 13 0 0.0 3.2 0.00 0.00 0.00 77 1008.3
20260506011548 13 0 0.0 6.4 0.00 0.00 0.00 76 1008.0
20260506010035 13 360 1.6 3.2 0.00 0.00 0.00 75 1007.9
20260506004541 14 58 0.0 6.4 0.00 0.00 0.00 73 1007.8
20260506003046 14 182 3.2 8.0 0.00 0.00 0.00 73 1007.4
20260506001547 15 160 3.2 9.7 0.00 0.00 0.00 70 1006.9
20260506000054 16 163 3.2 9.7 0.00 0.00 0.00 67 1006.7
20260505234540 17 180 3.2 14.5 0.00 0.00 0.00 65 1006.4
20260505233049 16 157 3.2 17.7 0.00 0.00 0.00 69 1006.2
20260505231548 12 360 3.2 9.7 0.00 0.00 0.00 77 1006.7
20260505230046 13 0 0.0 6.4 0.00 0.00 0.00 77 1005.2
20260505224544 13 190 1.6 6.4 0.00 0.00 0.00 76 1004.9
20260505223045 13 178 3.2 8.0 0.00 0.00 0.00 74 1004.8
20260505221550 14 148 3.2 14.5 0.00 0.00 0.00 74 1004.7
20260505220044 14 136 1.6 12.9 0.00 0.00 0.00 73 1004.6
20260505214539 15 82 1.6 9.7 0.00 0.00 0.00 72 1004.5
20260505213035 15 250 1.6 8.0 0.00 0.00 0.00 71 1004.4
20260505211608 15 300 3.2 12.9 0.00 0.00 0.00 73 1004.3
20260505210044 14 182 3.2 9.7 0.00 0.00 0.00 73 1004.3
20260505204555 15 141 4.8 14.5 0.00 0.00 0.00 71 1004.2
20260505203039 15 171 4.8 16.1 0.00 0.00 0.00 70 1004.4
20260505201539 15 178 1.6 11.3 0.00 0.00 0.00 71 1004.4
20260505200048 15 258 1.6 16.1 0.00 0.00 0.00 71 1004.6
20260505194546 15 212 1.6 9.7 0.00 0.00 0.00 72 1004.8
20260505193035 15 190 3.2 9.7 0.00 0.00 0.00 74 1004.9
20260505191544 14 270 1.6 9.7 0.00 0.00 0.00 75 1005.1
20260505190041 14 142 3.2 11.3 0.00 0.00 0.00 75 1005.6
20260505184540 14 167 3.2 8.0 0.00 0.00 0.00 74 1005.9
20260505183034 14 0 1.6 8.0 0.00 0.00 0.00 75 1005.9
20260505181605 15 209 3.2 9.7 0.00 0.00 0.00 73 1006.0
20260505180059 15 263 1.6 8.0 0.00 0.00 0.00 72 1005.8
20260505174538 15 209 1.6 9.7 0.00 0.00 0.00 70 1006.4
20260505173046 16 199 1.6 8.0 0.00 0.00 0.00 69 1006.4
20260505171547 16 151 3.2 14.5 0.00 0.00 0.00 69 1006.4
20260505170040 17 92 3.2 6.4 0.00 0.00 0.00 66 1007.0
20260505164540 17 169 3.2 11.3 0.00 0.00 0.00 67 1006.8
20260505163036 16 211 3.2 9.7 0.00 0.00 0.00 69 1007.3
20260505161548 16 281 3.2 8.0 0.00 0.00 0.00 69 1007.4
20260505153044 16 206 3.2 8.0 0.00 0.00 0.00 69 1008.1
20260505151535 15 201 1.6 6.4 0.00 0.00 0.00 73 1008.2
20260505124547 11 267 1.6 11.3 0.00 0.00 0.00 82 1008.3
20260505123052 11 168 1.6 6.4 0.00 0.00 0.00 82 1008.0
20260505121536 11 141 1.6 6.4 0.00 0.00 0.00 82 1008.0
20260505120104 11 170 1.6 8.0 0.00 0.00 0.00 83 1008.1
20260505114541 11 201 1.6 6.4 0.00 0.00 0.00 83 1008.3
20260505113039 10 0 0.0 4.8 0.00 0.00 0.00 85 1008.4
20260505111538 10 360 1.6 4.8 0.00 0.00 0.00 86 1008.3
20260505110106 10 182 0.0 6.4 0.00 0.00 0.00 86 1008.2
20260505101535 8 0 0.0 1.6 0.00 0.00 0.00 87 1008.3
20260505100036 9 190 0.0 4.8 0.00 0.00 0.00 86 1008.3
20260505094545 9 0 0.0 4.8 0.00 0.00 0.00 85 1008.3
20260505093043 9 0 0.0 3.2 0.00 0.00 0.00 85 1008.2
20260505091551 9 0 0.0 3.2 0.00 0.00 0.00 85 1008.3
20260505090040 9 139 0.0 3.2 0.00 0.00 0.00 85 1008.5
20260505084556 9 360 0.0 3.2 0.00 0.00 0.00 85 1008.6
20260505083044 9 0 0.0 3.2 0.00 0.00 0.00 84 1008.5
20260505081544 9 151 0.0 4.8 0.00 0.00 0.00 83 1008.7